Regional Weather Roundup
Issued by NWS Jackson, KY

Home | Current Version | Previous Version | Text Only | Print | Product List | Glossary On
Versions: 1 2 3 4 5 6 7 8 9 10 11 12 13 14 15 16 17 18 19 20 21 22 23 24 25 26 27 28 29 30 31 32 33 34 35 36 37 38 39 40 41 42 43 44 45 46 47 48 49 50
000
ASUS43 KJKL 050210
RWRJKL

EAST KENTUCKY HOURLY WEATHER ROUNDUP
NATIONAL WEATHER SERVICE JACKSON KY
1000 PM EDT TUE AUG 04 2015

NOTE: "FAIR" INDICATES FEW OR NO CLOUDS BELOW 12,000 FEET WITH
NO SIGNIFICANT WEATHER AND/OR OBSTRUCTIONS TO VISIBILITY.

* THESE REPORTS ARE NOT UNDER NWS QUALITY CONTROL AND MAY NOT
  REPORT WEATHER SUCH AS PRECIPITATION AND FOG.

KYZ079-080-083-085-087-088-110-112-115-119-120-050300
...EASTERN KENTUCKY...

CITY           SKY/WX    TMP DP  RH WIND       PRES   REMARKS
JACKSON        CLOUDY    69  67  93 CALM      30.07F FOG
LONDON         TSTM      73  65  75 N3        30.10R
SOMERSET*      CLOUDY    68  68 100 CALM      30.08R
MONTICELLO*    CLOUDY    72  71  96 CALM      30.10R
MIDDLESBORO*   CLOUDY    74  69  86 CALM      30.10R
HAZARD APT*    FOG       70  70 100 CALM      30.09R VSB 1/4
PIKEVILLE APT* MOCLDY    68  66  94 CALM      30.09R
BIG SANDY*     LGT RAIN  70  68  94 SW5       30.07R
MOREHEAD APT*  MOCLDY    72  66  83 S6        30.07S
$$

KYZ035-036-041-042-044-050-067-078-099-050300
...CENTRAL KENTUCKY...

CITY           SKY/WX    TMP DP  RH WIND       PRES   REMARKS
MT STERLING*   RAIN      70  70 100 NW3       30.10R
DANVILLE*      LGT RAIN  68  66  94 NW6       30.11R
RICHMOND*      CLOUDY    70  66  88 NW8       30.10R
LEXINGTON      TSTM      68  66  93 W7G22     30.09R
FRANKFORT      LGT RAIN  68  65  90 SW6       30.06F
$$

KYZ091>093-OHZ055-061-077-WVZ005-015-034-035-042-050300
...SOUTHERN OHIO/WEST VIRGINIA...

CITY           SKY/WX    TMP DP  RH WIND       PRES   REMARKS
COVINGTON      CLOUDY    71  63  75 SW3       30.03R
COLUMBUS       CLOUDY    73  56  54 W5        30.00R
DAYTON         MOCLDY    70  60  70 NW3       30.03R
WILMINGTON     PTCLDY    73  55  53 NW6       30.02R
HUNTINGTON     PTCLDY    75  70  84 SW8       30.02R
CHARLESTON     MOCLDY    78  69  73 SW8       30.01R
PINEVILLE*     CLOUDY    69  69  99 MISG      30.13S
BECKLEY        MOCLDY    71  62  73 SW8       30.11R
BLUEFIELD      CLOUDY    69  63  81 W6        30.14R
$$

VAZ002-007-008-TNZ017-027-036-066-071-050300
...SOUTHWEST VIRGINIA/EAST TENNESSEE...

CITY           SKY/WX    TMP DP  RH WIND       PRES   REMARKS
WISE*          CLOUDY    66  66 100 SW3       30.16R
ABINGDON*      CLOUDY    72  66  83 N3        30.12R
BRISTOL        CLOUDY    69  67  93 CALM      30.09R
KNOXVILLE      MOCLDY    82  71  69 NE8       30.03R
OAK RIDGE      MOCLDY    82  70  66 NE3       30.05R
CROSSVILLE     CLOUDY    76  70  82 CALM      30.09R
NASHVILLE      MOCLDY    87  67  51 CALM      30.01R HX  90
$$

...KEY TO REMARKS...
VSB - VISIBILITY IN MILES
WCI - WIND CHILL INDEX
HX  - HEAT INDEX

$$



USA.gov is the U.S. government's official web portal to all federal, state and local government web resources and services.